星链-4505 (STARLINK-4505 )

导读

STARLINK-4505是美国SpaceX公司星链(Starlink)项目中的一颗V1.5低轨通信卫星,于2022年8月19日发射入轨。作为星链第二代星座的主力型号,它配备激光星间链路,支持卫星间直接通信,降低对地面基站的依赖,可提供更高带宽,助力星链实现全球高速互联网覆盖,扩展了高纬度、偏远及海洋区域的网络覆盖能力,是当前星链星座的重要组成部分。

Basic Information
目录编号:
53556
目录名称:
STARLINK-4505
国际标识:
2022-101AF
轨道中心:
EARTH
卫星名称:
星链-4505
卫星全名:
星链-4505 (STARLINK-4505 )
卫星状态:
在轨 (已飞行1484 天)
发射日期:
2022-08-19 UTC
国别 :
美国 (US)
星等 :
--
This satellite is enrolled in the Space Conjunction Data Service (SCDS) and the current flight risk assessment level is: No High Risk
Orbit Information
数据来源 国际轨道数据
星历时间: 2026-09-10T17:29:08+0800
23小时前
查看轨道信息
半长轴: 6917.909km
偏心率: 0.0001175
轨道倾角: 53.162°
近地点辐角 85.853°
升交点赤经 314.344°
平近点角 274.259°
近地点: 538.959km
远地点: 540.585km
周期: 95.438分钟
每日圈数: 15.088307
Detailed Information
固有亮度:
5
最大亮度:
2.5
卫星平台:
Starlink v1.5
覆盖范围:
全球
运营商:
太空探索技术公司
运营商所在国:
美国
制造商(研发单位):
太空探索技术公司
制造商所在国:
美国
使用方式:
暂无
Satellite Introduction
星链(Starlink)计划是由太空探索技术公司(SpaceX)提出的一个巨型低轨卫星互联网星座项目,计划在2019年至2024年间在太空搭建由约1.2万颗卫星组成的“星链”网络,其中1584颗将部署在地球上空550千米处的近地轨道,并从2020年开始工作。该卫星仍在工作。
2D Orbit Map
3D Orbit Map
Orbit Altitude Analysis Chart
Orbit Inclination Analysis Chart
Orbit Comprehensive Analysis Chart
View Comprehensive Chart
Conjunction Data List
Event ID Objects TCA Miss Dist (km) Collision Risk Probability Collision Risk Index (CRI) Action
CDM_260907-174005-355606-630022
2026-09-07T
17:40:20+0000
1.381 km
极远距离
5.996203E-6 低风险 0.51
CDM_260906-130804-042005-355622
2026-09-06T
13:08:19+0000
2.864 km
极远距离
8.848976E-7 极低风险 0.34
Miss Distance Evolution Trend with All Objects
Collision Probability Evolution Trend with All Objects